Location: Minneapolis
(45.0000°N, 93.0000°W)
Time: 03:40:54

N. Korean satellite - Pass Details

Date: 08 March 2018
Orbit: 460 x 512 km, 97.2° (Epoch: 20 March)

Event Time Altitude Azimuth Distance (km) Brightness Sun altitude
Rises 05:53:36 0° 29° (NNE) 2,628 10.7 -8.5°
Reaches altitude 10° 05:56:21 10° 51° (NE) 1,739 10.2 -8.1°
Maximum altitude 05:58:46 16° 92° (E) 1,380 10.3 -7.6°
Drops below altitude 10° 06:01:12 10° 132° (SE) 1,731 10.1 -7.2°
Sets 06:03:54 0° 154° (SSE) 2,608 10.6 -6.7°
